EW2270 Weather Reports


time (UTC)temp
F
wind
direction
speed
knots
gust
knots
rain 1hr
in
rain 24hr
in
rain mn
in
humidity
%
barometer
mb
20260905233006 69 330 2.6 6.1 0.00 0.00 0.00 46 1014.3
20260905231506 69 328 5.2 9.6 0.00 0.00 0.00 46 1014.2
20260905230004 68 39 3.5 9.6 0.00 0.00 0.00 48 1014.4
20260905224502 68 33 4.3 10.4 0.00 0.00 0.00 47 1014.6
20260905223100 67 345 6.1 10.4 0.00 0.00 0.00 48 1014.7
20260905221612 67 30 7.8 13.0 0.00 0.00 0.00 52 1015.0
20260905220056 66 32 7.8 13.0 0.00 0.00 0.00 56 1015.0
20260905214557 65 46 9.6 13.9 0.00 0.00 0.00 55 1015.1
20260905213103 64 68 3.5 10.4 0.00 0.00 0.00 57 1016.1
20260905211556 64 46 7.0 12.2 0.00 0.00 0.00 56 1015.5
20260905210057 65 24 3.5 10.4 0.00 0.00 0.00 52 1015.5
20260905204553 65 21 4.3 9.6 0.00 0.00 0.00 52 1015.7
20260905203054 65 55 7.0 10.4 0.00 0.00 0.00 50 1015.6
20260905201604 65 13 4.3 10.4 0.00 0.00 0.00 52 1015.7
20260905200048 64 79 5.2 7.0 0.00 0.00 0.00 53 1015.9
20260905194546 65 63 4.3 7.8 0.00 0.00 0.00 52 1015.8
20260905193056 65 357 1.7 4.3 0.00 0.00 0.00 52 1015.7
20260905191543 64 30 4.3 7.0 0.00 0.00 0.00 54 1015.8
20260905190043 63 356 0.9 5.2 0.00 0.00 0.00 54 1016.3
20260905184544 63 266 0.0 3.5 0.00 0.00 0.00 55 1016.4
20260905183039 61 326 1.7 5.2 0.00 0.00 0.00 58 1016.2
20260905181544 62 313 0.0 2.6 0.00 0.00 0.00 58 1016.6
20260905180040 62 109 0.9 3.5 0.00 0.00 0.00 59 1016.8
20260905174534 60 271 2.6 5.2 0.00 0.00 0.00 59 1016.9
20260905173032 61 243 2.6 5.2 0.00 0.00 0.00 62 1016.9
20260905171533 60 271 0.9 4.3 0.00 0.00 0.00 63 1016.9
20260905170028 59 262 2.6 4.3 0.00 0.00 0.00 64 1016.9
20260905164525 58 240 1.7 3.5 0.00 0.00 0.00 72 1016.7
20260905163021 57 203 1.7 4.3 0.00 0.00 0.00 76 1016.7
20260905161518 56 194 2.6 5.2 0.00 0.00 0.00 76 1016.7
20260905160016 55 237 0.9 3.5 0.00 0.00 0.00 79 1016.6
20260905154620 55 204 1.7 4.3 0.00 0.00 0.00 80 1016.5
20260905153014 54 240 0.0 1.7 0.00 0.00 0.00 80 1016.6
20260905151514 54 134 0.0 0.0 0.00 0.00 0.00 80 1016.7
20260905150013 54 134 0.0 0.9 0.00 0.00 0.00 79 1016.5
20260905144512 53 151 1.7 3.5 0.00 0.00 0.00 82 1016.7
20260905143017 51 113 0.0 1.7 0.00 0.00 0.00 82 1016.5
20260905141509 51 113 0.0 0.0 0.00 0.00 0.00 83 1016.3
20260905140009 50 113 0.0 1.7 0.00 0.00 0.00 83 1016.3
20260905134505 51 113 0.0 0.0 0.00 0.00 0.00 83 1016.3
20260905133004 50 113 0.9 1.7 0.00 0.00 0.00 84 1016.1
20260905131504 50 113 0.0 3.5 0.00 0.00 0.00 83 1015.9
20260905130001 50 310 0.0 1.7 0.00 0.00 0.00 82 1015.9
20260905124604 51 320 0.0 2.6 0.00 0.00 0.00 81 1015.8
20260905123100 53 193 3.5 5.2 0.00 0.00 0.00 78 1016.0
20260905121600 54 182 3.5 5.2 0.00 0.00 0.00 74 1016.0
20260905120057 53 156 2.6 7.0 0.00 0.00 0.00 78 1016.0
20260905114556 53 139 3.5 6.1 0.00 0.00 0.00 80 1016.0
20260905113055 54 137 2.6 6.1 0.00 0.00 0.00 76 1015.7
20260905111605 53 145 4.3 7.0 0.00 0.00 0.00 76 1015.8
20260905110058 52 172 2.6 3.5 0.00 0.00 0.00 80 1015.8
20260905104609 53 180 2.6 3.5 0.00 0.00 0.00 77 1015.4
20260905103049 53 141 0.0 0.9 0.00 0.00 0.00 75 1015.2
20260905101551 52 141 0.0 1.7 0.00 0.00 0.00 76 1015.2
20260905100047 52 139 1.7 2.6 0.00 0.00 0.00 77 1015.3
20260905094546 53 139 0.9 3.5 0.00 0.00 0.00 75 1015.0
20260905093045 53 129 0.9 4.3 0.00 0.00 0.00 75 1015.0
20260905091604 53 108 0.0 3.5 0.00 0.00 0.00 74 1015.1
20260905090044 55 108 2.6 3.5 0.00 0.00 0.00 71 1015.0
20260905084604 54 104 1.7 4.3 0.00 0.00 0.00 72 1015.1
20260905083141 55 248 0.0 3.5 0.00 0.00 0.00 70 1015.0
20260905081537 55 277 1.7 6.1 0.00 0.00 0.00 71 1015.1
20260905080040 51 205 0.0 1.7 0.00 0.00 0.00 78 1015.0
20260905074532 50 205 0.9 6.1 0.00 0.00 0.00 78 1014.9
20260905073033 51 18 3.5 5.2 0.00 0.00 0.00 76 1014.1
20260905071526 53 139 0.0 3.5 0.00 0.00 0.00 73 1014.0
20260905070042 51 139 0.9 3.5 0.00 0.00 0.00 76 1013.9
20260905064522 50 148 1.7 3.5 0.00 0.00 0.00 78 1013.9
20260905063020 49 162 1.7 3.5 0.00 0.00 0.00 77 1013.8
20260905061518 49 204 1.7 3.5 0.00 0.00 0.00 76 1013.6
20260905060018 51 204 0.9 2.6 0.00 0.00 0.00 75 1013.5
20260905054538 51 204 1.7 2.6 0.00 0.00 0.00 74 1013.3
20260905053016 51 204 0.9 3.5 0.00 0.00 0.00 73 1013.4
20260905051533 50 145 1.7 4.3 0.00 0.00 0.00 73 1013.3
20260905050014 51 152 0.0 1.7 0.00 0.00 0.00 70 1013.2
20260905044518 52 152 0.0 1.7 0.00 0.00 0.00 70 1013.2
20260905043012 54 155 0.0 5.2 0.00 0.00 0.00 66 1013.2
20260905041512 56 296 1.7 3.5 0.00 0.00 0.00 64 1013.2
20260905040011 57 250 0.0 1.7 0.00 0.00 0.00 60 1013.3
20260905034509 59 293 2.6 7.0 0.00 0.00 0.00 54 1013.1
20260905033018 58 68 3.5 5.2 0.00 0.00 0.00 56 1012.9
20260905031511 58 71 1.7 3.5 0.00 0.00 0.00 57 1012.7
20260905030008 59 332 1.7 3.5 0.00 0.00 0.00 53 1012.8
20260905024507 60 54 0.0 2.6 0.00 0.00 0.00 53 1012.7
20260905023007 62 59 4.3 7.8 0.00 0.00 0.00 48 1012.6
20260905021506 63 77 3.5 7.0 0.00 0.00 0.00 47 1012.5
20260905020011 65 56 4.3 9.6 0.00 0.00 0.00 44 1012.5
20260905014504 65 44 6.1 10.4 0.00 0.00 0.00 44 1012.5
20260905013004 65 64 4.3 8.7 0.00 0.00 0.00 44 1012.5
20260905011506 66 92 6.1 11.3 0.00 0.00 0.00 45 1012.4
20260905010003 65 81 8.7 17.4 0.00 0.00 0.00 45 1012.4
20260905004502 67 106 11.3 17.4 0.00 0.00 0.00 42 1012.1
20260905001559 70 4 7.0 13.9 0.00 0.00 0.00 37 1011.9
20260905000058 69 1 4.3 8.7 0.00 0.00 0.00 37 1011.8
20260904234556 69 345 3.5 9.6 0.00 0.00 0.00 37 1011.9